Weather History for McGuire AFB, NJ

Change the Weather History Date:

Tuesday, April 1, 2014

  Actual Average Record
Temperature  
Mean Temperature 45 °F -  
Max Temperature 59 °F 56 °F 75 °F (1998)
Min Temperature 33 °F 36 °F 24 °F (2003)
Degree Days  
Heating Degree Days 20    
Moisture  
Dew Point 32 °F    
Average Humidity 64    
Maximum Humidity 86    
Minimum Humidity 37    
Precipitation  
Precipitation 0.00 in - - ()
Sea Level Pressure  
Sea Level Pressure 30.08 in    
Wind  
Wind Speed 7 mph (WNW)    
Max Wind Speed 10 mph    
Max Gust Speed -    
Visibility 10 miles    
Events      
Averages and records for this station are not official NWS values.
T = Trace of Precipitation, MM = Missing Value Source: NWS Daily Summary

Daily Weather History Graph

Daily Weather History Graph

Search for Another Location

Airport:

Trip Planner

Search our weather history database for the weather conditions in past years. The results will help you decide how hot, cold, wet, or windy it might be!

Date:

Astronomy

Apr. 01, 2014 Rise Set
Actual Time 6:42 AM EDT 7:22 PM EDT
Civil Twilight 6:15 AM EDT 7:50 PM EDT
Nautical Twilight 5:42 AM EDT 8:22 PM EDT
Astronomical Twilight 5:09 AM EDT 8:55 PM EDT
Moon 7:43 AM EDT (4/1) 9:42 PM EDT (4/1)
Length of Visible Light 13h 34m
Length of Day
12h 40m
Waxing Crescent, 4% of the Moon is Illuminated
Apr 1
Waxing Crescent
Apr 7
First Quarter
Apr 15
Full
Apr 22
Last Quarter
Apr 29
New

Hourly Weather History & Observations

Time (EDT) Temp. Windchill Dew Point Humidity Pressure Visibility Wind Dir Wind Speed Gust Speed Precip Events Conditions
12:58 AM 39.7 °F 33.7 °F 30.7 °F 70% 30.09 in 10.0 mi NNW 9.2 mph - N/A   Clear
1:58 AM 36.9 °F 30.7 °F 30.6 °F 78% 30.12 in 10.0 mi NNE 8.1 mph - N/A   Clear
2:58 AM 34.0 °F 29.8 °F 28.6 °F 81% 30.11 in 10.0 mi North 4.6 mph - N/A   Clear
3:58 AM 33.8 °F 27.0 °F 28.2 °F 80% 30.10 in 10.0 mi NNW 8.1 mph - N/A   Clear
4:58 AM 33.6 °F 27.5 °F 27.7 °F 79% 30.11 in 10.0 mi NW 6.9 mph - N/A   Clear
5:58 AM 34.0 °F 29.8 °F 28.0 °F 79% 30.12 in 10.0 mi WNW 4.6 mph - N/A   Clear
6:58 AM 33.1 °F 27.7 °F 28.4 °F 83% 30.12 in 10.0 mi NW 5.8 mph - N/A   Clear
7:58 AM 38.3 °F 32.5 °F 30.2 °F 73% 30.14 in 10.0 mi NNW 8.1 mph - N/A   Clear
8:58 AM 43.0 °F 37.7 °F 30.4 °F 61% 30.14 in 10.0 mi NNW 9.2 mph - N/A   Clear
9:58 AM 45.3 °F 42.3 °F 30.7 °F 57% 30.14 in 10.0 mi North 5.8 mph - N/A   Clear
10:58 AM 48.4 °F - 30.4 °F 50% 30.14 in 10.0 mi WNW 5.8 mph - N/A   Clear
11:58 AM 50.9 °F - 30.7 °F 46% 30.10 in 10.0 mi SW 5.8 mph - N/A   Clear
12:58 PM 54.1 °F - 31.6 °F 42% 30.09 in 10.0 mi WNW 4.6 mph - N/A   Clear
1:58 PM 56.7 °F - 32.5 °F 40% 30.06 in 9.0 mi Variable 2.3 mph - N/A   Partly Cloudy
2:58 PM 57.0 °F - 32.7 °F 40% 30.04 in 10.0 mi SSW 5.8 mph - N/A   Scattered Clouds
3:58 PM 57.2 °F - 32.7 °F 40% 30.01 in 10.0 mi SSW 5.8 mph - N/A   Overcast
4:58 PM 57.9 °F - 31.6 °F 37% 30.01 in 10.0 mi West 5.8 mph - N/A   Mostly Cloudy
5:58 PM 54.0 °F - 37.4 °F 54% 29.99 in 6.0 mi SE 10.4 mph - N/A   Haze
6:58 PM 51.4 °F - 37.4 °F 59% 30.01 in 10.0 mi SE 4.6 mph - N/A   Mostly Cloudy
7:58 PM 46.8 °F - 36.5 °F 67% 30.04 in 10.0 mi SSE 5.8 mph - N/A   Clear
8:58 PM 43.2 °F 39.0 °F 35.8 °F 75% 30.06 in 10.0 mi SSE 6.9 mph - N/A   Clear
9:58 PM 39.9 °F 37.8 °F 34.5 °F 81% 30.07 in 10.0 mi South 3.5 mph - N/A   Clear
10:58 PM 38.7 °F 36.3 °F 34.7 °F 86% 30.07 in 10.0 mi SE 3.5 mph - N/A   Clear
11:58 PM 38.3 °F 34.8 °F 34.5 °F 86% 30.06 in 10.0 mi SSE 4.6 mph - N/A   Clear